Time,TemperatureF,DewpointF,PressureIn,WindDirection,WindDirectionDegrees,WindSpeedMPH,WindSpeedGustMPH,Humidity,HourlyPrecipIn,Conditions,Clouds,dailyrainin,SoftwareType,DateUTC
2013-04-12 10:15:00,40.4,39.6,29.56,East,82,0.0,7.0,97,0.10,,,0.48,Wunderground v.1.15,2013-04-12 14:15:00,
2013-04-12 10:20:00,40.6,39.8,29.55,East,82,0.0,7.0,97,0.08,,,0.49,Wunderground v.1.15,2013-04-12 14:20:00,
2013-04-12 10:25:00,41.0,40.2,29.56,East,82,0.0,0.0,97,0.08,,,0.49,Wunderground v.1.15,2013-04-12 14:25:00,
2013-04-12 10:30:00,41.4,40.6,29.55,East,82,0.0,0.0,97,0.07,,,0.50,Wunderground v.1.15,2013-04-12 14:30:00,
2013-04-12 10:40:00,41.9,41.1,29.55,East,85,0.0,0.0,97,0.08,,,0.51,Wunderground v.1.15,2013-04-12 14:40:00,
2013-04-12 10:45:00,42.1,41.3,29.55,East,85,0.0,0.0,97,0.07,,,0.52,Wunderground v.1.15,2013-04-12 14:45:00,
2013-04-12 10:50:00,42.4,41.6,29.54,East,83,0.0,0.0,97,0.07,,,0.52,Wunderground v.1.15,2013-04-12 14:50:00,
2013-04-12 10:55:00,42.6,41.8,29.53,East,84,0.0,0.0,97,0.06,,,0.53,Wunderground v.1.15,2013-04-12 14:55:00,
2013-04-12 11:00:00,42.7,41.9,29.53,East,84,0.0,0.0,97,0.06,,,0.53,Wunderground v.1.15,2013-04-12 15:00:00,
2013-04-12 11:09:00,42.9,42.1,29.53,East,84,0.0,3.0,97,0.12,,,0.55,Wunderground v.1.15,2013-04-12 15:09:00,
2013-04-12 11:15:00,43.1,42.3,29.53,East,84,0.0,3.0,97,0.09,,,0.56,Wunderground v.1.15,2013-04-12 15:15:00,
2013-04-12 11:20:00,43.3,42.5,29.53,East,85,0.0,3.0,97,0.08,,,0.56,Wunderground v.1.15,2013-04-12 15:20:00,
2013-04-12 11:25:00,43.6,42.8,29.53,East,86,0.0,3.0,97,0.05,,,0.56,Wunderground v.1.15,2013-04-12 15:25:00,
2013-04-12 11:30:00,44.3,43.5,29.53,East,86,0.0,3.0,97,0.00,,,0.56,Wunderground v.1.15,2013-04-12 15:30:00,
2013-04-12 11:35:00,44.9,44.1,29.53,East,96,0.0,3.0,97,0.00,,,0.56,Wunderground v.1.15,2013-04-12 15:35:00,
2013-04-12 11:40:00,45.3,44.5,29.53,East,94,1.0,3.0,97,0.00,,,0.57,Wunderground v.1.15,2013-04-12 15:40:00,
2013-04-12 11:45:00,45.4,44.6,29.53,SSE,153,1.0,3.0,97,0.00,,,0.57,Wunderground v.1.15,2013-04-12 15:45:00,
2013-04-12 11:55:00,46.1,45.3,29.53,West,265,1.0,3.0,97,0.00,,,0.57,Wunderground v.1.15,2013-04-12 15:55:00,
2013-04-12 12:00:00,46.5,46.0,29.52,ESE,112,1.0,1.0,98,0.00,,,0.57,Wunderground v.1.15,2013-04-12 16:00:00,
2013-04-12 12:05:00,46.7,45.9,29.52,SE,137,1.0,3.0,97,0.00,,,0.57,Wunderground v.1.15,2013-04-12 16:05:00,
2013-04-12 12:10:00,46.9,46.4,29.52,SE,140,1.0,3.0,98,0.00,,,0.57,Wunderground v.1.15,2013-04-12 16:10:00,
2013-04-12 12:15:00,47.6,47.1,29.52,SSE,165,2.0,3.0,98,0.00,,,0.57,Wunderground v.1.15,2013-04-12 16:15:00,
2013-04-12 12:25:00,48.1,47.6,29.52,South,170,2.0,3.0,98,0.00,,,0.57,Wunderground v.1.15,2013-04-12 16:25:00,
2013-04-12 12:30:00,48.1,47.3,29.52,SSE,159,3.0,7.0,97,0.00,,,0.57,Wunderground v.1.15,2013-04-12 16:30:00,
2013-04-12 12:35:00,48.5,48.0,29.52,SSE,157,3.0,7.0,98,0.00,,,0.57,Wunderground v.1.15,2013-04-12 16:35:00,
2013-04-12 12:40:00,48.9,48.1,29.52,South,173,3.0,3.0,97,0.00,,,0.57,Wunderground v.1.15,2013-04-12 16:40:00,
2013-04-12 12:45:00,49.0,48.2,29.52,SSE,148,3.0,9.0,97,0.00,,,0.57,Wunderground v.1.15,2013-04-12 16:45:00,
2013-04-12 12:50:00,49.5,48.7,29.52,South,170,4.0,13.0,97,0.00,,,0.57,Wunderground v.1.15,2013-04-12 16:50:00,
2013-04-12 12:55:00,49.4,48.6,29.51,SSE,167,5.0,13.0,97,0.00,,,0.57,Wunderground v.1.15,2013-04-12 16:55:00,
2013-04-12 13:05:00,49.7,48.6,29.51,SE,146,5.0,6.0,96,0.00,,,0.57,Wunderground v.1.15,2013-04-12 17:05:00,
2013-04-12 13:10:00,49.8,48.7,29.51,SSE,153,5.0,6.0,96,0.00,,,0.57,Wunderground v.1.15,2013-04-12 17:10:00,
2013-04-12 13:15:00,49.7,48.3,29.51,SSE,153,5.0,6.0,95,0.00,,,0.57,Wunderground v.1.15,2013-04-12 17:15:00,
2013-04-12 13:20:00,49.6,47.9,29.52,SE,138,4.0,4.0,94,0.00,,,0.57,Wunderground v.1.15,2013-04-12 17:20:00,
2013-04-12 13:25:00,49.5,47.8,29.52,SE,144,3.0,4.0,94,0.00,,,0.58,Wunderground v.1.15,2013-04-12 17:25:00,
2013-04-12 13:30:00,49.4,47.7,29.52,SSE,150,3.0,3.0,94,0.00,,,0.58,Wunderground v.1.15,2013-04-12 17:30:00,
2013-04-12 13:35:00,49.4,47.7,29.52,SSW,198,3.0,3.0,94,0.00,,,0.58,Wunderground v.1.15,2013-04-12 17:35:00,
2013-04-12 13:45:00,49.5,47.8,29.52,SSE,160,3.0,6.0,94,0.00,,,0.58,Wunderground v.1.15,2013-04-12 17:45:00,
2013-04-12 13:50:00,49.6,47.9,29.51,SSE,164,2.0,5.0,94,0.00,,,0.58,Wunderground v.1.15,2013-04-12 17:50:00,
2013-04-12 13:55:00,49.6,47.9,29.52,South,188,2.0,5.0,94,0.00,,,0.58,Wunderground v.1.15,2013-04-12 17:55:00,
2013-04-12 14:00:00,49.8,48.1,29.52,SSE,164,2.0,4.0,94,0.00,,,0.58,Wunderground v.1.15,2013-04-12 18:00:00,
2013-04-12 14:10:00,50.2,48.5,29.52,SSE,164,1.0,1.0,94,0.00,,,0.58,Wunderground v.1.15,2013-04-12 18:10:00,
2013-04-12 14:20:00,50.7,49.0,29.52,SW,216,2.0,3.0,94,0.00,,,0.58,Wunderground v.1.15,2013-04-12 18:20:00,
2013-04-12 14:25:00,51.1,49.1,29.53,South,186,2.0,3.0,93,0.00,,,0.58,Wunderground v.1.15,2013-04-12 18:25:00,
2013-04-12 15:30:00,45.4,42.9,29.58,SSW,203,2.0,3.0,91,0.00,,,0.59,Wunderground v.1.15,2013-04-12 19:30:00,
2013-04-12 15:35:00,45.1,42.6,29.59,West,262,2.0,3.0,91,0.00,,,0.59,Wunderground v.1.15,2013-04-12 19:35:00,
2013-04-12 15:39:00,45.0,42.5,29.58,SSW,205,2.0,3.0,91,0.00,,,0.59,Wunderground v.1.15,2013-04-12 19:39:00,
2013-04-12 15:45:00,45.0,42.5,29.58,SW,229,2.0,5.0,91,0.00,,,0.59,Wunderground v.1.15,2013-04-12 19:45:00,
2013-04-12 15:49:00,45.7,43.2,29.58,SW,216,3.0,6.0,91,0.00,,,0.59,Wunderground v.1.15,2013-04-12 19:49:00,
2013-04-12 15:55:00,47.0,44.5,29.58,SW,234,4.0,7.0,91,0.00,,,0.59,Wunderground v.1.15,2013-04-12 19:55:00,
2013-04-12 16:00:00,47.8,44.1,29.59,WSW,250,4.0,9.0,87,0.00,,,0.59,Wunderground v.1.15,2013-04-12 20:00:00,
2013-04-12 16:05:00,47.8,43.5,29.59,WNW,292,5.0,9.0,85,0.00,,,0.59,Wunderground v.1.15,2013-04-12 20:05:00,
2013-04-12 16:10:00,48.5,43.9,29.59,SW,236,5.0,5.0,84,0.00,,,0.59,Wunderground v.1.15,2013-04-12 20:10:00,
2013-04-12 16:15:00,48.7,43.5,29.60,SW,219,4.0,5.0,82,0.00,,,0.59,Wunderground v.1.15,2013-04-12 20:15:00,
2013-04-12 16:20:00,48.7,43.1,29.60,SW,217,4.0,4.0,81,0.00,,,0.59,Wunderground v.1.15,2013-04-12 20:20:00,
2013-04-12 16:25:00,49.1,43.8,29.60,WNW,292,4.0,4.0,82,0.00,,,0.59,Wunderground v.1.15,2013-04-12 20:25:00,
2013-04-12 16:30:00,49.6,43.7,29.60,WSW,252,4.0,4.0,80,0.00,,,0.59,Wunderground v.1.15,2013-04-12 20:30:00,
2013-04-12 16:40:00,49.5,42.6,29.61,WNW,290,4.0,13.0,77,0.00,,,0.59,Wunderground v.1.15,2013-04-12 20:40:00,
2013-04-12 16:45:00,48.7,42.1,29.61,SW,235,4.0,13.0,78,0.00,,,0.59,Wunderground v.1.15,2013-04-12 20:45:00,
2013-04-12 16:50:00,48.7,42.5,29.61,South,186,4.0,4.0,79,0.00,,,0.59,Wunderground v.1.15,2013-04-12 20:50:00,
2013-04-12 16:55:00,48.5,42.0,29.61,WSW,238,4.0,8.0,78,0.00,,,0.59,Wunderground v.1.15,2013-04-12 20:55:00,
2013-04-12 17:00:00,48.3,41.8,29.61,West,264,4.0,4.0,78,0.00,,,0.59,Wunderground v.1.15,2013-04-12 21:00:00,
2013-04-12 17:05:00,48.3,42.1,29.62,West,269,4.0,5.0,79,0.00,,,0.59,Wunderground v.1.15,2013-04-12 21:05:00,
2013-04-12 17:10:00,47.9,41.4,29.62,West,277,5.0,7.0,78,0.00,,,0.59,Wunderground v.1.15,2013-04-12 21:10:00,
2013-04-12 22:20:00,39.7,34.0,29.75,WSW,254,2.0,2.0,80,0.00,,,0.59,Wunderground v.1.15,2013-04-13 02:20:00,
2013-04-12 22:25:00,39.7,34.0,29.75,West,264,3.0,7.0,80,0.00,,,0.59,Wunderground v.1.15,2013-04-13 02:25:00,
2013-04-12 22:30:00,39.8,34.1,29.75,West,276,3.0,3.0,80,0.00,,,0.59,Wunderground v.1.15,2013-04-13 02:30:00,
2013-04-12 22:35:00,39.8,34.1,29.75,WSW,250,3.0,3.0,80,0.00,,,0.59,Wunderground v.1.15,2013-04-13 02:35:00,
2013-04-12 22:40:00,39.8,33.8,29.75,SSW,213,3.0,3.0,79,0.00,,,0.59,Wunderground v.1.15,2013-04-13 02:40:00,
2013-04-12 22:50:00,39.8,33.8,29.76,SSW,194,2.0,4.0,79,0.00,,,0.59,Wunderground v.1.15,2013-04-13 02:50:00,
2013-04-12 22:55:00,39.8,33.8,29.76,SW,236,2.0,4.0,79,0.00,,,0.59,Wunderground v.1.15,2013-04-13 02:55:00,
2013-04-12 23:00:00,39.8,33.8,29.76,South,178,2.0,2.0,79,0.00,,,0.59,Wunderground v.1.15,2013-04-13 03:00:00,
2013-04-12 23:05:00,39.9,33.9,29.76,SSW,206,1.0,5.0,79,0.00,,,0.59,Wunderground v.1.15,2013-04-13 03:05:00,
2013-04-12 23:10:00,39.9,33.6,29.76,SSW,202,2.0,7.0,78,0.00,,,0.59,Wunderground v.1.15,2013-04-13 03:10:00,
2013-04-12 23:15:00,39.9,33.6,29.75,SSW,196,2.0,7.0,78,0.00,,,0.59,Wunderground v.1.15,2013-04-13 03:15:00,
2013-04-12 23:20:00,39.9,33.6,29.75,West,260,2.0,7.0,78,0.00,,,0.59,Wunderground v.1.15,2013-04-13 03:20:00,
2013-04-12 23:30:00,39.8,33.5,29.75,SW,215,2.0,2.0,78,0.00,,,0.59,Wunderground v.1.15,2013-04-13 03:30:00,
2013-04-12 23:35:00,39.9,33.6,29.75,SSW,202,2.0,7.0,78,0.00,,,0.59,Wunderground v.1.15,2013-04-13 03:35:00,
2013-04-12 23:40:00,39.9,33.6,29.75,SW,228,2.0,7.0,78,0.00,,,0.59,Wunderground v.1.15,2013-04-13 03:40:00,
2013-04-12 23:45:00,39.9,33.9,29.75,SW,225,2.0,7.0,79,0.00,,,0.59,Wunderground v.1.15,2013-04-13 03:45:00,
2013-04-12 23:50:00,39.9,33.9,29.75,SSW,200,1.0,7.0,79,0.00,,,0.59,Wunderground v.1.15,2013-04-13 03:50:00,
2013-04-12 23:59:00,39.9,33.9,29.75,SSW,202,1.0,1.0,79,0.00,,,0.59,Wunderground v.1.15,2013-04-13 03:59:00,